Location: Newcastle
(43.9170°N, 78.5830°W)
Time: 02:06:37
(UTC-04:00)

Daily predictions for brighter satellites

Satellite Brightness Start Highest point End
(mag) Time Altitude Azimuth Time Altitude Azimuth Time Altitude Azimuth
Cosmos 2369 Rocket 4.4 02:43:34 19° ENE 02:43:34 19° ENE 02:45:35 10° NE
Cosmos 2344 4.1 02:54:43 50° ENE 02:54:43 50° ENE 03:00:53 10° NE
ATLAS 3B R/B 4.0 02:57:25 32° ENE 02:57:25 32° ENE 03:01:21 10° NE
Lacrosse 5 4.3 03:04:48 19° NE 03:04:48 19° NE 03:07:06 10° ENE
SL-16 R/B 4.2 03:11:30 24° NNW 03:11:30 24° NNW 03:13:44 10° NNW
CZ-2D R/B 4.1 03:08:40 10° NNE 03:10:39 24° NNE 03:10:39 24° NNE
Cosmos 1943 Rocket 3.7 03:17:15 31° NE 03:17:15 31° NE 03:20:10 10° NNE
ATLAS 5 CENTAUR R/B 4.5 03:27:54 12° N 03:27:54 12° N 03:29:14 10° N
CENTAUR R/B 3.0 03:34:40 56° ENE 03:34:40 56° ENE 03:40:13 10° NE
ADEOS II 3.0 03:42:33 10° NNE 03:46:16 44° NE 03:46:16 44° NE
USA 238 DEB 4.4 04:04:52 38° NW 04:04:53 38° NW 04:11:21 10° NNE
USA 238 4.4 04:04:58 39° NW 04:04:59 39° NW 04:11:28 10° NNE
Cosmos 1656 Rocket 4.0 04:05:38 60° E 04:05:38 60° E 04:11:01 10° NNE
Resurs 1-4 Rocket 3.9 04:02:19 10° N 04:04:29 21° NNW 04:04:29 21° NNW
ARIANE 5 R/B 3.2 04:03:55 10° NNE 04:07:32 47° N 04:07:32 47° N
BREEZE-M DEB (TANK) 3.8 04:14:14 63° WNW 04:15:20 78° N 04:32:48 10° E
Cosmos 2369 Rocket 2.9 04:25:22 42° NW 04:25:22 42° NW 04:30:00 10° NNE
Cosmos 44 3.7 04:25:51 56° N 04:25:51 56° N 04:29:47 10° NNE
Cosmos 2084 Rocket 4.0 04:34:51 52° ESE 04:34:51 52° ESE 04:38:16 10° SE
Cosmos 1092 Rocket 3.8 04:36:29 63° SW 04:37:21 73° W 04:43:32 10° N
BREEZE-M DEB (TANK) 3.1 04:38:50 86° ESE 04:38:50 86° ESE 04:41:47 10° ENE
Iridium 4 Rocket 3.1 04:40:37 74° NNE 04:40:37 74° NNE 04:44:31 10° N
BREEZE-M DEB (TANK) 3.9 04:36:33 37° W 04:41:09 83° NNW 04:45:29 10° ENE
Cosmos 1812 3.3 04:43:21 52° ESE 04:43:31 52° E 04:47:17 10° NNE
Cosmos 773 Rocket 4.2 04:43:23 45° S 04:44:51 68° ESE 04:49:58 10° NNE
ATLAS 3B R/B 3.0 04:44:41 41° WNW 04:45:52 45° NW 04:52:10 10° NNE
Lacrosse 5 2.3 04:44:04 24° NW 04:47:01 60° NE 04:52:00 10° ESE
Cosmos 783 Rocket 4.4 04:46:51 64° W 04:47:02 65° WNW 04:52:16 10° NNE
SL-24 DEB 4.1 04:47:18 69° S 04:47:52 85° W 04:52:36 10° N
SL-4 R/B 4.1 04:54:18 14° SSE 04:54:18 14° SSE 04:54:56 10° SE
Cosmos 1862 Rocket 3.5 04:52:16 73° SSW 04:52:41 86° W 04:57:12 10° N
NOSS 3-2 (C) 4.4 04:51:31 29° WNW 04:52:53 32° NW 04:58:52 10° NNE
CZ-2D R/B 4.2 04:50:51 10° NNW 04:51:57 12° NW 04:51:57 12° NW
Meteor 2-6 Rocket 4.3 04:52:26 50° SW 04:53:47 65° WNW 04:59:44 10° N
RUBIN 8/PSLV 4.5 04:52:54 10° NNE 04:57:18 85° WNW 04:58:03 61° SSW
Cosmos 1943 Rocket 3.5 04:58:47 23° NW 04:58:52 23° NW 05:03:17 10° N
PSLV R/B 4.2 04:55:08 10° SSE 04:59:14 69° ENE 05:03:20 10° N
Cosmos 2242 Rocket 3.7 04:57:54 34° S 04:59:48 76° E 05:04:17 10° NNE
Cosmos 1666 4.3 05:03:00 10° N 05:06:31 35° ENE 05:10:00 10° SE
Cosmos 1340 2.7 05:02:52 10° N 05:06:40 77° ENE 05:10:26 10° SSE
Cosmos 2344 4.5 05:04:44 26° WNW 05:08:02 36° NNW 05:15:53 10° NNE
Cosmos 1315 Rocket 2.7 05:07:34 48° SSW 05:08:42 86° WNW 05:12:51 10° N
IDEFIX/ARIANE 42P 2.6 05:03:27 10° NNE 05:08:46 80° ESE 05:13:11 15° S
USA 81 3.9 05:07:01 29° SSW 05:09:43 71° W 05:15:01 10° N
Meteor 1-27 Rocket 3.7 05:06:26 20° SSW 05:10:40 84° W 05:16:28 10° N
Atlas Centaur 2 4.2 05:13:40 15° SSW 05:13:50 15° SSW 05:17:42 10° SSE
Aureole 2 Rocket 3.8 05:19:50 20° N 05:19:50 20° N 05:20:56 10° N
Spot 2 4.2 05:15:13 10° N 05:19:39 57° WNW 05:21:00 39° SW
Gbstr 26 Del rocket 4.5 05:12:01 11° WNW 05:20:05 88° NNE 05:27:46 10° ESE
ATLAS CENTAUR R/B 4.0 05:17:47 10° N 05:21:12 20° NE 05:24:24 10° E
Cosmos 1553 Rocket 3.9 05:15:59 10° NNW 05:22:13 75° W 05:28:19 10° S
Cosmos 1400 Rocket 4.4 05:24:01 20° NW 05:24:01 20° NW 05:26:00 10° NNW
SeaSat 1 2.7 05:18:20 10° NNE 05:23:16 69° ESE 05:27:38 13° SSW
Cosmos 1908 Rocket 3.4 05:19:03 10° N 05:23:24 84° W 05:27:45 10° S
CENTAUR R/B 3.7 05:21:51 23° WNW 05:24:42 31° NNW 05:31:04 10° NNE
PSLV R/B 3.5 05:20:54 10° N 05:25:15 67° WNW 05:27:42 25° SSW
BREEZE-M DEB (TANK) 3.7 05:16:04 10° WNW 05:25:31 70° NNE 05:28:42 10° ESE
Meteor 1-31 Rocket 4.4 05:22:15 10° NNE 05:25:53 36° E 05:29:28 10° SSE
ADEOS II 3.6 05:23:24 10° NNW 05:26:59 19° WNW 05:27:12 19° WNW
Cosmos 1538 Rocket 3.9 05:25:08 26° SW 05:28:03 65° WNW 05:33:13 10° NNE
Meteor 1-11 Rocket 3.8 05:23:11 10° NNW 05:28:33 51° W 05:33:51 10° SSW
Cosmos 1733 Rocket 4.1 05:26:05 10° NNW 05:29:14 27° WNW 05:29:14 27° WNW
Cosmos 2026 Rocket 4.5 05:29:42 24° SW 05:32:57 40° WNW 05:38:55 10° N
Shenzhou-11 Module 3.4 05:41:51 21° S 05:42:45 25° SSE 05:45:06 10° E
Cosmos 1346 Rocket 3.4 05:41:23 10° NNW 05:45:08 35° W 05:48:50 10° SSW
SJ-6F 4.5 05:42:00 10° NNE 05:46:13 87° ESE 05:50:25 10° SSW
ARIANE 5 R/B 4.4 05:45:29 10° NW 05:47:17 12° NW 05:47:51 12° WNW
Cosmos 1500 4.1 05:44:20 10° NW 05:47:27 25° W 05:47:48 25° W
Okean O Rocket 4.4 05:46:36 10° NE 05:50:00 21° E 05:53:22 10° SE
OAO 2 Rocket 4.5 05:47:32 17° SW 05:50:22 29° S 05:54:34 10° ESE
Cosmos 1536 3.4 05:48:00 10° NNW 05:51:35 32° W 05:55:09 10° SSW
PAYLOAD A 3.7 05:48:16 10° N 05:53:00 76° WNW 05:57:40 10° SSW
Unknown 2.7 05:52:26 16° NW 05:54:33 78° NNE 05:57:25 10° ESE
Cosmos 44 Rocket 3.8 05:52:43 18° WSW 05:56:06 45° NW 06:00:50 10° NNE
Cosmos 1697 Rocket 4.5 05:59:06 10° SSE 06:04:08 34° ESE 06:09:12 10° NE
Cosmos 2227 Rocket 2.6 05:58:53 10° NNW 06:04:34 69° ENE 06:10:13 10° SSE
Unknown 3.6 06:01:23 10° NW 06:04:34 54° NNE 06:07:44 10° ESE
BREEZE-M DEB (TANK) 4.3 06:01:59 10° SSW 06:05:05 22° SSE 06:07:04 10° E
S3M 4.3 05:59:44 10° NNW 06:05:34 44° W 06:11:27 10° SSW
Abrixas rocket 4.1 06:03:33 10° SSW 06:06:01 23° SE 06:08:29 10° E
ADEOS 4.4 06:01:39 10° N 06:06:09 30° WNW 06:10:39 10° SW
Cosmos 1655 Rocket 4.4 06:00:34 10° SSW 06:06:27 43° WNW 06:12:26 10° N
Cosmos 1782 Rocket 3.7 06:02:17 10° NNW 06:06:33 51° W 06:10:49 10° S
H-2A R/B 3.2 06:05:07 10° N 06:08:26 28° WNW 06:11:44 10° SW
SKYMED 2 4.5 06:04:57 10° SSE 06:09:11 54° ENE 06:13:26 10° N
Meteor 1-18 Rocket 4.3 06:03:42 10° S 06:09:18 86° E 06:15:03 10° NNE
Cosmos 2219 3.2 06:04:18 10° NNW 06:09:57 67° WSW 06:15:31 10° SSE
Cosmos 2297 Rocket 2.3 06:09:08 10° NNW 06:14:49 86° ENE 06:20:29 10° SSE
Cosmos 1371 Rocket 4.3 06:12:15 10° NNW 06:17:39 76° ENE 06:22:58 10° SSE
Cosmos 1703 Rocket 4.4 06:15:11 10° SW 06:19:03 29° WNW 06:22:55 10° NNW
USA 215 3.4 06:14:11 10° NE 06:20:45 79° SE 06:27:18 10° SW
Cosmos 2292 Rocket 3.4 06:16:09 10° SSW 06:21:04 72° W 06:24:49 10° N
Cosmos 2151 Rocket 4.1 06:17:08 10° N 06:21:33 66° E 06:25:58 10° SSE
Cosmos 1743 2.8 06:17:51 10° NNW 06:21:42 59° W 06:25:31 10° S
Cosmos 1900 4.4 06:16:47 10° SW 06:21:54 80° WNW 06:27:01 10° NNE
EP 3 3.7 06:20:27 10° SW 06:22:33 59° NW 06:24:38 10° NNE
CZ-4B R/B 3.4 06:21:32 10° N 06:25:54 48° WNW 06:30:11 10° SW
Lacrosse 5 2.8 06:25:28 10° WNW 06:29:41 27° SW 06:33:53 10° S
CZ-2C R/B 2.8 06:25:22 10° N 06:30:02 43° WNW 06:34:48 10° SW
Cosmos 2112 Rocket 4.1 06:26:36 10° SSW 06:31:48 63° WNW 06:37:00 10° NNE
Cosmos 2369 4.3 06:26:22 10° S 06:31:56 64° ESE 06:37:32 10° NNE
Meteor PRIRODA 3.8 06:28:52 10° N 06:32:28 52° WNW 06:36:05 10° SSW
Sich 1 Rocket 4.2 06:28:50 10° NNW 06:32:52 34° W 06:36:54 10° SSW
Okean 1-7 4.1 06:30:22 10° SW 06:34:00 25° WNW 06:37:39 10° NNW
